Regional Weather Roundup
Issued by NWS Cleveland, OH

Home | Current Version | Previous Version | Graphics & Text | Print | Product List | Glossary On
Versions: 1 2 3 4 5 6 7 8 9 10 11 12 13 14 15 16 17 18 19 20 21 22 23 24 25 26 27 28 29 30 31 32 33 34 35 36 37 38 39 40 41 42 43 44 45 46 47 48 49 50
000
ASUS41 KCLE 291300
RWRCLE
OHIO REGIONAL WEATHER ROUNDUP
NATIONAL WEATHER SERVICE WILMINGTON, OH
900 AM EDT WED JUL 29 2015

NOTE: "FAIR" INDICATES FEW OR NO CLOUDS BELOW 12,000 FEET WITH NO
SIGNIFICANT WEATHER AND/OR OBSTRUCTIONS TO VISIBILITY.

OHZ001>008-015>018-024>027-034-035-043-044-291400-
   NORTHWEST OHIO

CITY           SKY/WX    TMP DP  RH WIND       PRES   REMARKS
DEFIANCE       MOSUNNY   79  70  74 S5        29.98R
FINDLAY        MOSUNNY   78  71  79 S6        29.98R
TOLEDO EXPRESS SUNNY     77  68  73 SW6       29.97S
TOLEDO EXEC    SUNNY     76  68  76 S6        29.98R
LIMA           MOSUNNY   76  71  85 S3        29.99S
$$

OHZ009>014-019>023-028>033-038-089-291400-
   NORTHEAST OHIO

CITY           SKY/WX    TMP DP  RH WIND       PRES   REMARKS
CLE-HOPKINS    MOSUNNY   78  66  66 CALM      30.01R
CLE-LAKEFRONT  MOSUNNY   80  64  58 SE9       29.97R
CUY CO. ARPT   PTSUNNY   81  68  65 SE6       30.00R
LORAIN-ELYRIA  MOSUNNY   74  66  76 SW5       30.00R
ASHTABULA      SUNNY     75  68  78 S6        30.01R
AKRON-CANTON   SUNNY     77  67  71 CALM      30.01R
WOOSTER        NOT AVBL
MANSFIELD      SUNNY     78  66  66 S3        30.03R
YOUNGSTOWN     MOSUNNY   75  66  73 SE6       30.02R
$$

OHZ042-051>053-060>062-070>072-077>081-291400-
  SOUTHWEST OHIO

CITY           SKY/WX    TMP DP  RH WIND       PRES   REMARKS
CINC-COVINGTON PTSUNNY   81  75  82 CALM      30.01R
CINC-LUNKEN    MOSUNNY   76  74  93 CALM      30.00R FOG
HAMILTON       SUNNY     79  74  84 CALM      30.00S HAZE
DAYTON         NOT AVBL
WRIGHT-PAT AFB NOT AVBL
DAYTON GENERAL MOSUNNY   78  73  84 S3        30.00S HAZE
WILMINGTON     SUNNY     79  73  82 CALM      30.01R HAZE
$$

OHZ036-037-039>041-045>050-054>059-063>069-073>076-082>088-291400-
  CENTRAL AND SOUTHEAST OHIO

CITY           SKY/WX    TMP DP  RH WIND       PRES   REMARKS
COLUMBUS       MOSUNNY   79  67  66 CALM      30.00R
OSU AIRPORT    SUNNY     79  69  71 CALM      30.00R
BOLTON FIELD   SUNNY    N/A N/A N/A CALM        N/A
RICKENBACK AFB NOT AVBL
NEWARK         SUNNY     77  69  76 CALM      30.00R
MARION         SUNNY     78  68  71 CALM      30.01R HAZE
LANCASTER      SUNNY     78  71  79 CALM      30.01R HAZE
ZANESVILLE     SUNNY     75  69  81 S3        29.99S HAZE
NEW PHILLY     SUNNY     74  68  81 CALM      30.00S
$$



USA.gov is the U.S. government's official web portal to all federal, state and local government web resources and services.